Regional Weather Roundup
Issued by NWS

Home | Current Version | Previous Version | Graphics & Text | Print | Product List | Glossary On
Versions: 1 2 3 4 5 6 7 8 9 10 11 12 13 14 15 16 17 18 19 20 21 22 23 24 25 26 27 28 29 30 31 32 33 34 35 36 37 38 39 40 41 42 43 44 45 46 47 48 49 50
000
ASUS43 KLSX 041610
RWRMO

WEATHER SUMMARY FOR MISSOURI
NATIONAL WEATHER SERVICE SPRINGFIELD MO
1000 AM CST SUN DEC 04 2016

NOTE: "FAIR" INDICATES FEW OR NO CLOUDS BELOW 12,000 FEET WITH NO
       SIGNIFICANT WEATHER AND/OR OBSTRUCTIONS TO VISIBILITY.
       CURRENT SKY AND/OR WEATHER CONDITIONS ARE NOT AVAILABLE FOR
       CHILLICOTHE AND FARMINGTON.

MOZ001>031-035>038-043-044-053-054-041700-
...NORTHERN AND WESTERN MISSOURI...

CITY           SKY/WX    TMP DP  RH WIND       PRES   REMARKS
KANSAS CTY INT PTSUNNY   40  36  86 W8        30.01S
KANSAS C DTWN  PTSUNNY   41  38  89 VRB3      30.02S
LEE`S SUMMIT   CLOUDY    38  36  92 W7        30.02S
ST JOSEPH      CLOUDY    39  36  89 SW6       30.02R
CHILLICOTHE      N/A     33  33 100 CALM      30.03R
KIRKSVILLE     SNOW      33  33 100 S5        30.01R VSB 1/2 WCI  29

$$
MOZ066>068-077>081-088>096-101>105-041700-
...SOUTHWEST MISSOURI...

CITY           SKY/WX    TMP DP  RH WIND       PRES   REMARKS
SPRINGFIELD    CLOUDY    41  39  93 SW7       30.00F
JOPLIN         CLOUDY    42  42 100 W10       30.06R
BRANSON        CLOUDY    39  39 100 CALM      30.03R FOG

$$
MOZ032>034-039>042-045>050-055>058-069>072-041700-
...CENTRAL MISSOURI...

CITY           SKY/WX    TMP DP  RH WIND       PRES   REMARKS
COLUMBIA       LGT SNOW  34  33  96 S6        30.01F FOG     WCI  29
JEFFERSON CITY LGT RAIN  37  35  92 S5        30.03S
ROLLA          LGT RAIN  37  36  96 SW7       30.00R FOG
SEDALIA        LGT SNOW  34  32  92 CALM      30.03S FOG
WHITEMAN AFB   LGT RAIN  36  36 100 CALM      30.01S
WARRENSBURG    DRIZZLE   37  37 100 SW5       30.02S
OSAGE BEACH    RAIN      37  36  96 SW3       30.03S FOG

$$
MOZ051-052-059>065-041700-
...EAST CENTRAL MISSOURI...

CITY           SKY/WX    TMP DP  RH WIND       PRES   REMARKS
ST LOUIS INTL  LGT RAIN  39  35  86 SE7       30.02F FOG
SPIRIT OF STL  LGT RAIN  38  38 100 CALM      30.02F FOG
ST CHARLES     LGT RAIN  37  37 100 E7        30.02F FOG

$$
MOZ072>076-082>087-097>100-106>115-041700-
...SOUTH CENTRAL AND SOUTHEAST MISSOURI...

CITY           SKY/WX    TMP DP  RH WIND       PRES   REMARKS
CAPE GIRARDEAU CLOUDY    41  38  89 SE3       30.02R FOG
FARMINGTON     LGT RAIN  37  37 100 S6        30.00F FOG
POPLAR BLUFF   CLOUDY    41  40  96 CALM      30.04R FOG
WEST PLAINS    LGT RAIN  39  37  92 W6        30.03S FOG

$$




USA.gov is the U.S. government's official web portal to all federal, state and local government web resources and services.